CW7054 Weather Reports


time (UTC)temp
F
wind
direction
speed
knots
gust
knots
rain 1hr
in
rain 24hr
in
rain mn
in
humidity
%
barometer
mb
20260505031508 52 183 0.0 3.5 0.00 0.00 0.00 89 1011.9
20260505030008 52 161 0.0 5.2 0.00 0.00 0.00 88 1012.0
20260505024507 52 161 0.0 5.2 0.00 0.00 0.00 88 1012.0
20260505023006 52 165 0.0 4.3 0.00 0.00 0.00 88 1012.0
20260505021508 52 213 0.0 4.3 0.00 0.00 0.00 88 1012.1
20260505020006 52 247 0.0 4.3 0.00 0.00 0.00 88 1012.0
20260505014506 52 198 0.0 4.3 0.00 0.00 0.00 88 1011.9
20260505013006 52 259 0.0 5.2 0.00 0.00 0.00 89 1011.9
20260505011508 52 165 0.0 2.6 0.00 0.00 0.00 89 1011.8
20260505010004 52 167 0.9 7.0 0.00 0.00 0.00 89 1011.6
20260505004503 52 167 0.9 7.0 0.00 0.00 0.00 88 1011.4
20260505003003 52 189 0.9 6.1 0.00 0.00 0.00 88 1011.2
20260505001501 52 196 0.9 7.0 0.00 0.00 0.00 87 1010.9
20260505000002 52 175 1.7 5.2 0.00 0.00 0.00 87 1010.8
20260504234614 53 171 1.7 7.0 0.00 0.00 0.00 86 1010.7
20260504233108 53 193 0.0 4.3 0.00 0.00 0.00 85 1010.6
20260504231559 54 169 0.9 7.0 0.00 0.00 0.00 83 1010.5
20260504230059 54 168 0.0 7.0 0.00 0.00 0.00 82 1010.6
20260504224610 55 175 1.7 7.0 0.00 0.00 0.00 81 1010.6
20260504223057 55 239 0.9 3.5 0.00 0.00 0.00 80 1010.7
20260504221557 56 175 0.9 5.2 0.00 0.00 0.00 79 1010.8
20260504220059 56 194 1.7 5.2 0.00 0.00 0.00 78 1010.9
20260504214600 57 227 0.9 4.3 0.00 0.00 0.00 78 1011.0
20260504213125 57 248 0.9 5.2 0.00 0.00 0.00 78 1010.9
20260504211603 57 234 1.7 6.1 0.00 0.00 0.00 77 1010.9
20260504210055 58 208 0.9 6.1 0.00 0.00 0.00 76 1010.9
20260504204556 58 215 0.9 5.2 0.00 0.00 0.00 76 1010.9
20260504203114 59 231 1.7 8.7 0.00 0.00 0.00 74 1010.7
20260504201552 59 186 1.7 7.0 0.00 0.00 0.00 74 1010.8
20260504200053 59 197 1.7 9.6 0.00 0.00 0.00 73 1011.0
20260504194602 59 167 2.6 9.6 0.00 0.00 0.00 72 1011.0
20260504193057 60 255 1.7 7.0 0.00 0.00 0.00 72 1011.1
20260504191547 60 258 0.9 7.0 0.00 0.00 0.00 72 1011.1
20260504190058 60 147 0.9 6.1 0.00 0.00 0.00 71 1011.2
20260504184548 60 180 2.6 8.7 0.00 0.00 0.00 71 1011.4
20260504183042 60 107 2.6 9.6 0.00 0.00 0.00 71 1011.5
20260504181543 60 161 1.7 5.2 0.00 0.00 0.00 71 1011.7
20260504180039 60 175 1.7 7.8 0.00 0.00 0.00 73 1011.8
20260504174537 59 182 1.7 9.6 0.00 0.00 0.00 73 1011.9
20260504173043 59 169 1.7 7.8 0.00 0.00 0.00 74 1012.0
20260504171532 59 165 2.6 8.7 0.00 0.00 0.00 77 1012.1
20260504081517 48 217 0.0 2.6 0.00 0.00 0.00 81 1012.5
20260504044603 44 279 0.0 0.9 0.00 0.00 0.00 82 1011.9
20260504043054 44 279 0.0 0.0 0.00 0.00 0.00 80 1011.8
20260504041550 43 279 0.0 0.0 0.00 0.00 0.00 78 1011.8
20260504040047 43 279 0.0 0.9 0.00 0.00 0.00 75 1011.7
20260504034553 43 279 0.0 0.0 0.00 0.00 0.00 72 1011.7
20260504033053 43 279 0.0 0.0 0.00 0.00 0.00 72 1011.6